Change the Weather History Date:

Tuesday, October 23, 2012

  Actual Average Record
Temperature  
Mean Temperature 63 °F -  
Max Temperature 68 °F 50 °F 68 °F (2000)
Min Temperature 58 °F 35 °F 33 °F (1997)
Degree Days  
Heating Degree Days 2    
Growing Degree Days 13 (Base 50)    
Moisture  
Dew Point 58 °F    
Average Humidity 86    
Maximum Humidity 100    
Minimum Humidity 73    
Precipitation  
Precipitation 0.12 in 0.09 in - ()
Sea Level Pressure  
Sea Level Pressure 29.97 in    
Wind  
Wind Speed 6 mph ()    
Max Wind Speed 12 mph    
Max Gust Speed -    
Visibility 13.6 miles    
Events Rain    
Averages and records for this station are not official NWS values.
T = Trace of Precipitation, MM = Missing Value Source: Averaged Metar Reports

Daily Weather History Graph

Daily Weather History Graph

Search for Another Location

Airport or City:

Trip Planner

Search our weather history database for the weather conditions in past years. The results will help you decide how hot, cold, wet, or windy it might be!

Date:

Astronomy

Oct. 23, 2012 Rise Set
Actual Time 7:54 AM EDT 6:36 PM EDT
Civil Twilight 7:25 AM EDT 7:05 PM EDT
Nautical Twilight 6:53 AM EDT 7:38 PM EDT
Astronomical Twilight 6:20 AM EDT 8:10 PM EDT
Moon 3:25 PM EDT (10/23) 1:38 AM EDT (10/23)
Length of Visible Light 11h 39m
Length of Day
10h 42m
Waxing Gibbous, 66% of the Moon is Illuminated
Oct 23
Waxing Gibbous
Oct 29
Full
Nov 6
Last Quarter
Nov 13
New
Nov 20
First Quarter

Hourly Weather History & Observations

Time (EDT) Temp. Dew Point Humidity Pressure Visibility Wind Dir Wind Speed Gust Speed Precip Events Conditions
12:00 AM 60.8 °F 57.2 °F 88% 30.00 in 15.0 mi SW 3.5 mph - N/A   Overcast
1:00 AM 59.0 °F 57.2 °F 94% 30.01 in 12.0 mi WNW 4.6 mph - N/A Rain Light Rain Showers
2:00 AM 60 °F 59 °F 95% 30.02 in 12 mi West 5.8 mph - - Rain Heavy Rain Showers
2:00 AM 60.8 °F 59.0 °F 94% 30.02 in 12.0 mi West 5.8 mph - N/A Rain Rain Showers
3:00 AM 59.0 °F 59.0 °F 100% 29.96 in 15.0 mi SSE 8.1 mph - N/A Rain Light Rain Showers
4:00 AM 60.8 °F 59.0 °F 94% 29.93 in 15.0 mi South 8.1 mph - N/A Rain Light Rain Showers
4:24 AM - - N/A% - 15.0 mi South 10.4 mph - N/A   Overcast
5:00 AM 62.6 °F 57.2 °F 82% 29.92 in 15.0 mi SSW 10.4 mph - N/A   Overcast
5:47 AM - - N/A% - 15.0 mi SSW 9.2 mph - N/A Rain Light Rain Showers
6:00 AM 62.6 °F 57.2 °F 82% 29.92 in 15.0 mi SW 11.5 mph - N/A Rain Light Rain Showers
6:21 AM - - N/A% - 15.0 mi SW 11.5 mph - N/A   Overcast
7:00 AM 60.8 °F 57.2 °F 88% 29.93 in 15.0 mi SSW 10.4 mph - N/A   Overcast
8:00 AM 61 °F 56 °F 80% 29.94 in 12 mi SSW 6.9 mph - -   Partly Cloudy
8:00 AM 60.8 °F 57.2 °F 88% 29.94 in 12.0 mi SSW 5.8 mph - N/A   Overcast
9:00 AM 60.8 °F 57.2 °F 88% 29.95 in 15.0 mi SW 6.9 mph - N/A   Mostly Cloudy
10:00 AM 62.6 °F 57.2 °F 82% 29.96 in 15.0 mi SW 8.1 mph - N/A   Mostly Cloudy
11:00 AM 62.6 °F 57.2 °F 82% 29.97 in 15.0 mi WSW 9.2 mph - N/A   Overcast
12:00 PM 64.4 °F 57.2 °F 77% 29.98 in 15.0 mi WSW 10.4 mph - N/A   Overcast
1:00 PM 64.4 °F 57.2 °F 77% 29.98 in 15.0 mi West 8.1 mph - N/A   Overcast
2:00 PM 64 °F 57 °F 73% 29.97 in 15 mi West 6.9 mph - -   Overcast
2:00 PM 64.4 °F 57.2 °F 77% 29.97 in 15.0 mi West 5.8 mph - N/A   Overcast
3:00 PM 66.2 °F 59.0 °F 78% 29.95 in 12.0 mi NW 4.6 mph - N/A   Mostly Cloudy
4:00 PM 68.0 °F 60.8 °F 78% 29.94 in 8.0 mi NNW 6.9 mph - N/A   Mostly Cloudy
5:00 PM 68.0 °F 60.8 °F 78% 29.96 in 8.0 mi South 3.5 mph - N/A   Mostly Cloudy
6:00 PM 64.4 °F 59.0 °F 83% 29.99 in 7.0 mi South 9.2 mph - N/A   Overcast
7:00 PM 62.6 °F 60.8 °F 94% 29.99 in 12.0 mi South 6.9 mph - N/A   Mostly Cloudy
8:00 PM 62 °F 60 °F 92% 30.00 in 15 mi South 5.8 mph - -   Mostly Cloudy
8:00 PM 62.6 °F 60.8 °F 94% 30.00 in 15.0 mi South 6.9 mph - N/A   Mostly Cloudy
9:00 PM 62.6 °F 60.8 °F 94% 30.00 in 15.0 mi South 4.6 mph - N/A   Mostly Cloudy
10:00 PM 60.8 °F 59.0 °F 94% 30.00 in 15.0 mi SSE 5.8 mph - N/A   Scattered Clouds
11:00 PM 60.8 °F 59.0 °F 94% 30.01 in 15.0 mi South 6.9 mph - N/A   Mostly Cloudy